Home   Weather   Kolding   Past weeks

Flag for Denmark Past Weather in Kolding, Denmark — Yesterday and Last 2 Weeks

Now
46 °F

Scattered clouds.


Feels Like: 41 °F
Forecast: 36 / 50 °F
Wind: 10 mph from Northeast

Location: Vamdrup

Current Time: Apr 29, 2017 at 4:03:34 pm

Latest Report: Apr 29, 2017 at 1:50 pm


Visibility: N/A

Pressure: 30.04 "Hg

Humidity: 71%

Dew Point: 37 °F

Location of KoldingLocation

Past Weather in Kolding — Graph

°F

Kolding Temperature Yesterday

Maximum temperature yesterday: 50 °F (at 3:50 pm)
Minimum temperature yesterday: 36 °F (at 11:20 pm)
Average temperature yesterday: 43 °F

High & Low Weather Summary for the Past Weeks

 TemperatureHumidityPressure
High52 °F (Apr 14, 1:50 pm)100% (Apr 15, 2:50 am)30.63 "Hg (Apr 15, 2:50 am)
Low27 °F (Apr 26, 5:50 am)34% (Apr 19, 2:50 pm)29.56 "Hg (Apr 25, 5:50 am)
Average41 °F81%29.99 "Hg
* Reported Apr 14 1:50 pm — Apr 29 1:50 pm, Kolding, Weather by CustomWeather, © 2017

Note: Actual official high and low records may vary slightly from our data, if they occured in-between our weather recording intervals... More about our weather records

Advertising

Kolding Weather History for the Previous 24 Hours

Scroll right to see more
 ConditionsComfort  
Time TempWeatherWind HumidityBarometerVisibility
1:50 pm
Sat, Apr 29
46 °FScattered clouds.10 mph71%30.04 "HgN/A
12:50 pm46 °FSprinkles. Partly sunny.7 mph82%30.01 "HgN/A
11:50 am41 °FSprinkles. Partly sunny.9 mph87%30.01 "HgN/A
11:20 am43 °FSprinkles. Partly sunny.10 mph81%30.01 "HgN/A
10:50 am45 °FPartly sunny.7 mph76%29.98 "HgN/A
8:50 am39 °FScattered clouds.7 mph93%29.95 "HgN/A
8:20 am41 °FQuite cool.7 mph87%29.95 "HgN/A
7:50 am39 °FChilly.6 mph93%29.95 "HgN/A
7:20 am39 °FChilly.3 mph93%29.92 "HgN/A
6:50 am37 °FChilly.5 mph100%29.92 "HgN/A
6:20 am37 °FChilly.3 mph100%29.92 "HgN/A
5:50 am37 °FChilly.2 mph93%29.92 "HgN/A
5:20 am37 °FChilly.2 mph93%29.92 "HgN/A
4:50 am37 °FChilly.No wind93%29.92 "HgN/A
4:20 am37 °FChilly.2 mph93%29.92 "HgN/A
3:50 am37 °FChilly.6 mph93%29.92 "HgN/A
3:20 am37 °FChilly.6 mph100%29.89 "HgN/A
2:50 am37 °FChilly.No wind93%29.89 "HgN/A
2:20 am36 °FChilly.3 mph100%29.89 "HgN/A
1:50 am36 °FChilly.3 mph93%29.89 "HgN/A
1:20 am34 °FChilly.2 mph100%29.89 "HgN/A
12:50 am36 °FChilly.3 mph93%29.89 "HgN/A
12:20 am37 °FChilly.2 mph93%29.89 "HgN/A
11:50 pm
Fri, Apr 28
37 °FChilly.5 mph87%29.89 "HgN/A
11:20 pm36 °FChilly.5 mph93%29.89 "HgN/A
10:50 pm37 °FChilly.6 mph87%29.89 "HgN/A
10:20 pm37 °FChilly.6 mph87%29.89 "HgN/A
9:50 pm39 °FChilly.6 mph81%29.89 "HgN/A
9:20 pm39 °FChilly.6 mph87%29.89 "HgN/A
8:50 pm41 °FQuite cool.6 mph81%29.86 "HgN/A
7:50 pm41 °FQuite cool.16 mph76%29.86 "HgN/A
7:20 pm45 °FQuite cool.12 mph66%29.86 "HgN/A
6:50 pm46 °FCool.12 mph62%29.86 "HgN/A
6:20 pm46 °FCool.13 mph62%29.83 "HgN/A
4:50 pm46 °FSprinkles. Partly sunny.14 mph71%29.83 "HgN/A
Weather by CustomWeather, © 2017

See weather overviewHow to use our weather pages